Stündliche Wetter Barra do Corda

Heute, 23 Oktober, Freitag

Zeit Temperatur Niederschläge Wind Luftdruck Luftfeuchtigkeit
00:00 +27°C° 0.1 mm 2 m/S 748 mmHg 82%
01:00 +27°C° 0.2 mm 2 m/S 748 mmHg 84%
02:00 +26°C° 0.2 mm 1 m/S 747 mmHg 87%
03:00 +26°C° 0.2 mm 1 m/S 747 mmHg 90%
04:00 +26°C° 1 mm 1 m/S 748 mmHg 91%
05:00 +26°C° 1 mm 1 m/S 748 mmHg 93%
06:00 +26°C° 1 mm 1 m/S 748 mmHg 94%
07:00 +28°C° 0 mm 2 m/S 749 mmHg 84%
08:00 +30°C° 0 mm 2 m/S 749 mmHg 74%
09:00 +33°C° 0 mm 3 m/S 750 mmHg 64%
10:00 +29°C° 1.2 mm 2 m/S 747 mmHg 76%
11:00 +32°C° 1.2 mm 2 m/S 748 mmHg 64%
12:00 +36°C° 1.2 mm 2 m/S 748 mmHg 52%
13:00 +37°C° 0.1 mm 2 m/S 747 mmHg 46%
14:00 +39°C° 0.1 mm 2 m/S 746 mmHg 39%
15:00 +40°C° 0.1 mm 2 m/S 746 mmHg 33%
16:00 +36°C° 0.2 mm 1 m/S 746 mmHg 43%
17:00 +33°C° 0.2 mm 1 m/S 746 mmHg 53%
18:00 +30°C° 0.2 mm 1 m/S 746 mmHg 63%
19:00 +29°C° 0.3 mm 1 m/S 746 mmHg 68%
20:00 +28°C° 0.3 mm 2 m/S 747 mmHg 73%
21:00 +27°C° 0.3 mm 2 m/S 747 mmHg 78%
22:00 +27°C° 0 mm 2 m/S 747 mmHg 80%
23:00 +27°C° 0 mm 2 m/S 747 mmHg 83%

Morgen, 24 Oktober, Samstag

Zeit Temperatur Niederschläge Wind Luftdruck Luftfeuchtigkeit
00:00 +26°C° 0 mm 2 m/S 747 mmHg 85%
01:00 +26°C° 0 mm 2 m/S 747 mmHg 86%
02:00 +26°C° 0 mm 2 m/S 747 mmHg 87%
03:00 +26°C° 0 mm 2 m/S 747 mmHg 88%
04:00 +26°C° 0 mm 1 m/S 747 mmHg 88%
05:00 +26°C° 0 mm 1 m/S 748 mmHg 87%
06:00 +26°C° 0 mm 1 m/S 748 mmHg 87%
07:00 +28°C° 0 mm 2 m/S 749 mmHg 78%
08:00 +29°C° 0 mm 2 m/S 749 mmHg 70%
09:00 +31°C° 0 mm 3 m/S 750 mmHg 61%
10:00 +34°C° 0 mm 3 m/S 749 mmHg 53%
11:00 +37°C° 0 mm 3 m/S 749 mmHg 44%
12:00 +39°C° 0 mm 3 m/S 748 mmHg 36%
13:00 +38°C° 0 mm 2 m/S 747 mmHg 37%
14:00 +38°C° 0 mm 2 m/S 747 mmHg 38%
15:00 +36°C° 0 mm 1 m/S 746 mmHg 39%
16:00 +35°C° 0 mm 1 m/S 746 mmHg 43%
17:00 +33°C° 0 mm 1 m/S 746 mmHg 46%
18:00 +30°C° 0 mm 0 m/S 745 mmHg 50%
19:00 +29°C° 0 mm 0 m/S 746 mmHg 52%
20:00 +28°C° 0 mm 0 m/S 746 mmHg 54%
21:00 +28°C° 0 mm 0 m/S 746 mmHg 57%
22:00 +29°C° 0 mm 1 m/S 746 mmHg 59%
23:00 +29°C° 0 mm 1 m/S 746 mmHg 61%

übermorgen, 25 Oktober, Sonntag

Zeit Temperatur Niederschläge Wind Luftdruck Luftfeuchtigkeit
00:00 +28°C° 0 mm 2 m/S 746 mmHg 64%
01:00 +27°C° 0.1 mm 2 m/S 746 mmHg 71%
02:00 +27°C° 0.1 mm 2 m/S 746 mmHg 79%
03:00 +26°C° 0.1 mm 2 m/S 746 mmHg 87%
04:00 +26°C° 0 mm 2 m/S 746 mmHg 88%
05:00 +25°C° 0 mm 1 m/S 747 mmHg 89%
06:00 +25°C° 0 mm 1 m/S 747 mmHg 89%
07:00 +28°C° 0 mm 2 m/S 748 mmHg 78%
08:00 +30°C° 0 mm 2 m/S 748 mmHg 66%
09:00 +34°C° 0 mm 2 m/S 749 mmHg 55%
10:00 +35°C° 0 mm 2 m/S 748 mmHg 50%
11:00 +37°C° 0 mm 2 m/S 747 mmHg 45%
12:00 +38°C° 0 mm 2 m/S 747 mmHg 40%
13:00 +38°C° 0 mm 2 m/S 746 mmHg 38%
14:00 +39°C° 0 mm 2 m/S 745 mmHg 36%
15:00 +39°C° 0 mm 2 m/S 745 mmHg 35%
16:00 +37°C° 0 mm 1 m/S 745 mmHg 38%
17:00 +35°C° 0 mm 1 m/S 745 mmHg 42%
18:00 +33°C° 0 mm 1 m/S 745 mmHg 46%
19:00 +32°C° 0 mm 1 m/S 745 mmHg 50%
20:00 +31°C° 0 mm 1 m/S 745 mmHg 55%
21:00 +30°C° 0 mm 1 m/S 746 mmHg 59%
22:00 +29°C° 0 mm 1 m/S 746 mmHg 60%
23:00 +29°C° 0 mm 2 m/S 746 mmHg 62%

, 26 Oktober, Montag

Zeit Temperatur Niederschläge Wind Luftdruck Luftfeuchtigkeit
00:00 +29°C° 0 mm 2 m/S 746 mmHg 63%
01:00 +28°C° 0 mm 2 m/S 746 mmHg 68%
02:00 +27°C° 0 mm 2 m/S 746 mmHg 74%
03:00 +27°C° 0 mm 2 m/S 746 mmHg 79%
04:00 +26°C° 0 mm 2 m/S 746 mmHg 81%
05:00 +26°C° 0 mm 1 m/S 746 mmHg 83%
06:00 +26°C° 0 mm 1 m/S 747 mmHg 85%
07:00 +29°C° 0 mm 2 m/S 747 mmHg 74%
08:00 +31°C° 0 mm 2 m/S 748 mmHg 62%
09:00 +35°C° 0 mm 2 m/S 748 mmHg 51%
10:00 +36°C° 0 mm 2 m/S 747 mmHg 47%
11:00 +37°C° 0 mm 2 m/S 747 mmHg 42%
12:00 +39°C° 0 mm 2 m/S 746 mmHg 38%
13:00 +38°C° 0 mm 2 m/S 745 mmHg 38%
14:00 +37°C° 0 mm 1 m/S 745 mmHg 38%
15:00 +37°C° 0 mm 1 m/S 744 mmHg 38%
16:00 +36°C° 0.1 mm 1 m/S 745 mmHg 43%
17:00 +34°C° 0.1 mm 1 m/S 745 mmHg 48%
18:00 +30°C° 0.1 mm 0 m/S 745 mmHg 53%
19:00 +29°C° 0.2 mm 0 m/S 745 mmHg 58%
20:00 +30°C° 0.2 mm 1 m/S 746 mmHg 64%
21:00 +29°C° 0.2 mm 1 m/S 746 mmHg 69%
22:00 +29°C° 0.1 mm 1 m/S 746 mmHg 71%
23:00 +28°C° 0.1 mm 1 m/S 746 mmHg 74%

26 Oktober, Montag

Zeit Temperatur Niederschläge Wind Luftdruck Luftfeuchtigkeit
00:00 +29°C° 0 mm 2 m/S 746 mmHg 63%
01:00 +28°C° 0 mm 2 m/S 746 mmHg 68%
02:00 +27°C° 0 mm 2 m/S 746 mmHg 74%
03:00 +27°C° 0 mm 2 m/S 746 mmHg 79%
04:00 +26°C° 0 mm 2 m/S 746 mmHg 81%
05:00 +26°C° 0 mm 1 m/S 746 mmHg 83%
06:00 +26°C° 0 mm 1 m/S 747 mmHg 85%
07:00 +29°C° 0 mm 2 m/S 747 mmHg 74%
08:00 +31°C° 0 mm 2 m/S 748 mmHg 62%
09:00 +35°C° 0 mm 2 m/S 748 mmHg 51%
10:00 +36°C° 0 mm 2 m/S 747 mmHg 47%
11:00 +37°C° 0 mm 2 m/S 747 mmHg 42%
12:00 +39°C° 0 mm 2 m/S 746 mmHg 38%
13:00 +38°C° 0 mm 2 m/S 745 mmHg 38%
14:00 +37°C° 0 mm 1 m/S 745 mmHg 38%
15:00 +37°C° 0 mm 1 m/S 744 mmHg 38%
16:00 +36°C° 0.1 mm 1 m/S 745 mmHg 43%
17:00 +34°C° 0.1 mm 1 m/S 745 mmHg 48%
18:00 +30°C° 0.1 mm 0 m/S 745 mmHg 53%
19:00 +29°C° 0.2 mm 0 m/S 745 mmHg 58%
20:00 +30°C° 0.2 mm 1 m/S 746 mmHg 64%
21:00 +29°C° 0.2 mm 1 m/S 746 mmHg 69%
22:00 +29°C° 0.1 mm 1 m/S 746 mmHg 71%
23:00 +28°C° 0.1 mm 1 m/S 746 mmHg 74%

27 Oktober, Dienstag

Zeit Temperatur Niederschläge Wind Luftdruck Luftfeuchtigkeit
00:00 +27°C° 0.1 mm 1 m/S 746 mmHg 76%
01:00 +27°C° 0.3 mm 1 m/S 746 mmHg 81%
02:00 +26°C° 0.3 mm 1 m/S 746 mmHg 85%
03:00 +25°C° 0.3 mm 1 m/S 746 mmHg 90%
04:00 +25°C° 0 mm 1 m/S 746 mmHg 91%
05:00 +25°C° 0 mm 1 m/S 747 mmHg 92%
06:00 +25°C° 0 mm 1 m/S 747 mmHg 93%
07:00 +27°C° 0 mm 2 m/S 747 mmHg 80%
08:00 +30°C° 0 mm 2 m/S 748 mmHg 67%
09:00 +34°C° 0 mm 2 m/S 748 mmHg 53%
10:00 +37°C° 0 mm 2 m/S 747 mmHg 46%
11:00 +39°C° 0 mm 2 m/S 747 mmHg 38%
12:00 +42°C° 0 mm 2 m/S 746 mmHg 30%
13:00 +41°C° 0 mm 1 m/S 745 mmHg 31%
14:00 +40°C° 0 mm 1 m/S 744 mmHg 32%
15:00 +39°C° 0 mm 1 m/S 744 mmHg 34%
16:00 +35°C° 0.4 mm 1 m/S 744 mmHg 46%
17:00 +32°C° 0.4 mm 1 m/S 744 mmHg 57%
18:00 +29°C° 0.4 mm 1 m/S 744 mmHg 69%
19:00 +29°C° 0.4 mm 1 m/S 744 mmHg 73%
20:00 +28°C° 0.4 mm 1 m/S 745 mmHg 77%
21:00 +27°C° 0.4 mm 1 m/S 745 mmHg 81%
22:00 +27°C° 0.1 mm 1 m/S 745 mmHg 82%
23:00 +27°C° 0.1 mm 2 m/S 745 mmHg 84%

28 Oktober, Mittwoch

Zeit Temperatur Niederschläge Wind Luftdruck Luftfeuchtigkeit
00:00 +26°C° 0.1 mm 2 m/S 745 mmHg 86%
01:00 +26°C° 0.1 mm 2 m/S 745 mmHg 88%
02:00 +26°C° 0.1 mm 2 m/S 745 mmHg 91%
03:00 +25°C° 0.1 mm 2 m/S 745 mmHg 93%
04:00 +25°C° 0 mm 1 m/S 745 mmHg 94%
05:00 +25°C° 0 mm 1 m/S 746 mmHg 95%
06:00 +25°C° 0 mm 1 m/S 746 mmHg 95%
07:00 +28°C° 0 mm 1 m/S 747 mmHg 82%
08:00 +30°C° 0 mm 2 m/S 747 mmHg 68%
09:00 +34°C° 0 mm 2 m/S 748 mmHg 54%
10:00 +36°C° 0 mm 2 m/S 747 mmHg 47%
11:00 +38°C° 0 mm 2 m/S 746 mmHg 40%
12:00 +40°C° 0 mm 2 m/S 746 mmHg 33%
13:00 +40°C° 0 mm 2 m/S 745 mmHg 34%
14:00 +39°C° 0 mm 2 m/S 744 mmHg 35%
15:00 +39°C° 0 mm 2 m/S 744 mmHg 35%
16:00 +37°C° 0 mm 2 m/S 744 mmHg 39%
17:00 +36°C° 0 mm 2 m/S 743 mmHg 43%
18:00 +34°C° 0 mm 1 m/S 743 mmHg 46%
19:00 +33°C° 0.1 mm 1 m/S 744 mmHg 51%
20:00 +31°C° 0.1 mm 1 m/S 744 mmHg 55%
21:00 +30°C° 0.1 mm 2 m/S 745 mmHg 60%
22:00 +29°C° 0.2 mm 2 m/S 745 mmHg 68%
23:00 +28°C° 0.2 mm 2 m/S 745 mmHg 75%
Mehr zeigen